Location: Bullenkuhlen
(53.7689°N, 9.7495°E)
Time: 23:33:30
(UTC+00:00)

Cosmos 2369 - Pass Details

Date: 09 April 2020
Orbit: 840 x 855 km, 71.0° (Epoch: 27 May)

Event Time Altitude Azimuth Distance (km) Brightness Sun altitude
Rises 21:05:10 0° 326° (NW) 3,408 8.4 -21.8°
Reaches altitude 10° 21:07:39 10° 322° (NW) 2,469 7.3 -22.0°
Maximum altitude 21:13:11 57° 246° (WSW) 991 4.0 -22.5°
Enters shadow 21:14:56 40° 191° (S) 1,224 4.2 -22.6°
